TimeEDT,TemperatureF,Dew PointF,Humidity,Sea Level PressureIn,VisibilityMPH,Wind Direction,Wind SpeedMPH,Gust SpeedMPH,PrecipitationIn,Events,Conditions,WindDirDegrees,DateUTC
12:27 AM,35.6,33.8,93,29.40,8.0,NW,18.4,33.4,0.02,Rain,Light Rain,310,2012-10-30 04:27:00
12:53 AM,36.0,33.1,89,29.40,9.0,WNW,19.6,29.9,0.03,Rain,Light Rain,300,2012-10-30 04:53:00
1:53 AM,36.0,33.1,89,29.34,9.0,NW,23.0,34.5,0.02,Rain,Light Rain,310,2012-10-30 05:53:00
3:28 AM,35.6,32.0,87,29.29,4.0,WNW,19.6,27.6,0.01,Snow,Light Snow,300,2012-10-30 07:28:00
3:53 AM,34.0,32.0,92,29.29,3.0,WNW,20.7,32.2,0.02,Snow,Light Snow,300,2012-10-30 07:53:00
4:06 AM,33.8,32.0,93,29.27,3.0,WNW,19.6,34.5,0.01,Snow,Light Snow,300,2012-10-30 08:06:00
4:14 AM,33.8,32.0,93,29.27,2.5,WNW,15.0,28.8,0.01,Snow,Light Snow,300,2012-10-30 08:14:00
4:53 AM,34.0,32.0,92,29.27,2.5,WNW,18.4,28.8,0.04,Snow,Light Snow,300,2012-10-30 08:53:00
5:30 AM,33.8,32.0,93,29.25,2.5,NW,17.3,29.9,0.02,Snow,Light Snow,310,2012-10-30 09:30:00
5:53 AM,34.0,32.0,92,29.26,4.0,WNW,17.3,28.8,0.03,Snow,Light Snow,300,2012-10-30 09:53:00
6:04 AM,33.8,32.0,93,29.25,6.0,NW,17.3,28.8,0.00,,Overcast,310,2012-10-30 10:04:00
6:53 AM,35.1,32.0,89,29.26,5.0,WNW,17.3,28.8,0.01,Snow,Light Snow,300,2012-10-30 10:53:00
7:53 AM,36.0,33.1,89,29.26,10.0,WNW,19.6,28.8,0.01,,Overcast,300,2012-10-30 11:53:00
8:53 AM,36.0,33.1,89,29.26,10.0,NW,17.3,29.9,0.00,,Overcast,310,2012-10-30 12:53:00
9:27 AM,37.4,33.8,87,29.24,10.0,WNW,17.3,31.1,0.00,,Overcast,300,2012-10-30 13:27:00
9:53 AM,37.0,33.1,86,29.26,10.0,NW,16.1,23.0,0.00,,Overcast,310,2012-10-30 13:53:00
10:53 AM,37.9,35.1,89,29.26,10.0,NW,15.0,25.3,0.00,Rain,Light Rain,310,2012-10-30 14:53:00
11:53 AM,39.9,36.0,86,29.26,10.0,WNW,17.3,26.5,0.00,,Overcast,300,2012-10-30 15:53:00
12:53 PM,41.0,37.0,86,29.27,10.0,NW,17.3,24.2,0.00,Rain,Light Rain,310,2012-10-30 16:53:00
1:32 PM,41.0,37.4,87,29.26,10.0,NW,13.8,23.0,0.00,,Overcast,310,2012-10-30 17:32:00
1:53 PM,42.1,37.0,82,29.28,10.0,WNW,15.0,23.0,0.00,,Overcast,300,2012-10-30 17:53:00
2:05 PM,42.8,37.4,81,29.27,10.0,WNW,13.8,21.9,N/A,,Overcast,300,2012-10-30 18:05:00
2:48 PM,42.8,37.4,81,29.28,10.0,WNW,12.7,21.9,0.00,,Overcast,290,2012-10-30 18:48:00
2:53 PM,43.0,37.9,82,29.29,10.0,WNW,15.0,24.2,0.00,,Overcast,290,2012-10-30 18:53:00
3:53 PM,42.1,37.9,85,29.31,10.0,WNW,18.4,25.3,N/A,,Overcast,290,2012-10-30 19:53:00
4:53 PM,42.1,37.9,85,29.34,10.0,WNW,13.8,21.9,N/A,,Overcast,290,2012-10-30 20:53:00
5:53 PM,42.1,37.9,85,29.37,10.0,West,13.8,20.7,0.00,,Overcast,280,2012-10-30 21:53:00
6:53 PM,41.0,37.9,89,29.40,9.0,WNW,11.5,23.0,0.00,,Overcast,290,2012-10-30 22:53:00
8:53 PM,39.9,37.0,89,29.45,8.0,WNW,12.7,21.9,0.00,,Overcast,290,2012-10-31 00:53:00
9:23 PM,39.2,37.4,93,29.45,6.0,West,12.7,27.6,0.00,,Overcast,280,2012-10-31 01:23:00
9:46 PM,39.2,37.4,93,29.46,10.0,WNW,15.0,25.3,0.00,,Overcast,290,2012-10-31 01:46:00
9:53 PM,39.9,37.0,89,29.47,10.0,WNW,13.8,20.7,0.00,,Overcast,290,2012-10-31 01:53:00
10:53 PM,39.9,36.0,86,29.49,10.0,WNW,16.1,21.9,0.00,,Overcast,290,2012-10-31 02:53:00
11:53 PM,39.0,36.0,89,29.50,10.0,WNW,15.0,23.0,N/A,,Overcast,290,2012-10-31 03:53:00